FW2140 Somerville MA US current weather conditions

sailwx.info

Wind from 320 at 0 knots gusting 6

Air temperature 33.3° C
Dewpoint 19.0° C

Last reported at 2020-Aug-12 18:04 UTC.
Time now 2020-Aug-12 18:51 UTC

Location: N 42°23' W 071°06'.
View on Google Maps.

See reports from other nearby stations

  
Tides and Currents Weather Stations Pressure Air Temp Water Temp Dewpoint Dewpoint Depression Visibility Wind Speed Wind Dir Waves Ship Positions
date/time (UTC)wind fromknots sea level pressurealtimeterstation pressurevisibilityair tempwater tempwave heightnotes
2020-Aug-12 18:04 320 0 gusting 6 33.3
2020-Aug-12 17:54 335 34.4
2020-Aug-12 17:44 136 1 gusting 6 34.4
2020-Aug-12 17:34 259 0 gusting 6 33.9
2020-Aug-12 17:24 225 0 gusting 6 33.9
2020-Aug-12 17:14 314 2 gusting 6 33.3
2020-Aug-12 17:04 334 0 gusting 4 33.3
2020-Aug-12 16:54 272 0 gusting 6 32.8
2020-Aug-12 16:44 157 0 gusting 6 32.8
2020-Aug-12 16:34 332 1 gusting 6 32.2
2020-Aug-12 16:24 005 0 gusting 4 31.7
2020-Aug-12 16:14 222 31.7
2020-Aug-12 16:04 012 0 gusting 6 31.7
2020-Aug-12 15:54 172 0 gusting 4 31.1
2020-Aug-12 15:44 307 1 gusting 4 30.6
2020-Aug-12 15:34 169 0 gusting 4 30.6
2020-Aug-12 15:24 290 0 gusting 4 30.6
2020-Aug-12 15:14 312 0 gusting 4 30.0
2020-Aug-12 15:04 290 0 gusting 4 30.0
2020-Aug-12 14:54 220 0 gusting 4 29.4
2020-Aug-12 14:44 006 1 gusting 6 28.9
2020-Aug-12 14:34 314 1 gusting 6 29.4
2020-Aug-12 14:24 172 28.9
2020-Aug-12 14:14 324 28.3
2020-Aug-12 14:04 319 1 gusting 6 27.8
2020-Aug-12 13:54 312 0 gusting 4 27.8
2020-Aug-12 13:44 287 0 gusting 6 27.8
2020-Aug-12 13:34 320 0 gusting 4 27.8
2020-Aug-12 13:24 285 1 gusting 4 27.2
2020-Aug-12 13:14 167 27.2
2020-Aug-12 13:04 326 0 gusting 4 27.2
2020-Aug-12 12:54 003 27.2
2020-Aug-12 12:44 321 26.7
2020-Aug-12 12:34 104 27.2
2020-Aug-12 12:24 244 0 gusting 6 26.7
2020-Aug-12 12:14 287 0 gusting 4 26.7
2020-Aug-12 12:04 077 26.1
2020-Aug-12 11:54 197 26.1
2020-Aug-12 11:44 333 1 gusting 4 25.6
2020-Aug-12 11:34 062 25.6
2020-Aug-12 11:24 331 1 gusting 6 25.6
2020-Aug-12 11:14 340 0 gusting 4 25.6
2020-Aug-12 11:04 328 25.6
2020-Aug-12 10:54 190 25.6
2020-Aug-12 10:44 275 25.0
2020-Aug-12 10:34 296 25.0
2020-Aug-12 10:24 095 25.0
2020-Aug-12 10:14 112 0 gusting 4 25.0
2020-Aug-12 10:04 350 25.0
2020-Aug-12 09:54 317 0 gusting 1 25.0
2020-Aug-12 09:44 018 25.0
2020-Aug-12 09:34 325 0 gusting 1 25.0
2020-Aug-12 09:24 235 0 gusting 4 25.6
2020-Aug-12 09:14 339 25.6
2020-Aug-12 09:04 150 25.6
2020-Aug-12 08:54 270 0 gusting 4 25.6
2020-Aug-12 08:44 165 0 gusting 4 25.6
2020-Aug-12 08:34 198 25.6
2020-Aug-12 08:24 176 25.6
2020-Aug-12 08:14 119 25.6
2020-Aug-12 08:04 234 25.6
2020-Aug-12 07:54 142 0 gusting 4 25.0
2020-Aug-12 07:44 336 0 gusting 4 25.0
2020-Aug-12 07:34 186 25.0
2020-Aug-12 07:24 347 0 gusting 4 25.0
2020-Aug-12 07:14 333 0 gusting 4 25.0
2020-Aug-12 07:04 311 0 gusting 4 25.0
2020-Aug-12 06:54 174 25.0
2020-Aug-12 06:44 333 1 gusting 6 25.0
2020-Aug-12 06:34 221 25.0
2020-Aug-12 06:24 203 25.0
2020-Aug-12 06:14 164 0 gusting 1 25.0
2020-Aug-12 06:04 158 0 gusting 4 25.0
2020-Aug-12 05:54 354 25.0
2020-Aug-12 05:44 158 0 gusting 1 25.0
2020-Aug-12 05:34 056 25.0
2020-Aug-12 05:24 192 25.0
2020-Aug-12 05:14 175 25.0
2020-Aug-12 05:04 321 0 gusting 4 25.0
2020-Aug-12 04:54 268 25.0
2020-Aug-12 04:44 338 1 gusting 4 25.0
2020-Aug-12 04:34 348 1 gusting 4 25.6
2020-Aug-12 04:24 173 0 gusting 6 25.6
2020-Aug-12 04:14 147 25.6
2020-Aug-12 04:04 171 0 gusting 4 25.6
2020-Aug-12 03:54 298 0 gusting 6 25.6
2020-Aug-12 03:44 289 0 gusting 4 25.6
2020-Aug-12 03:34 179 0 gusting 4 25.6
2020-Aug-12 03:24 344 0 gusting 4 25.6
2020-Aug-12 03:14 124 0 gusting 4 25.6
2020-Aug-12 03:04 165 0 gusting 4 25.6
2020-Aug-12 02:54 298 0 gusting 4 26.1
2020-Aug-12 02:44 192 26.1
2020-Aug-12 02:34 173 0 gusting 6 26.1
2020-Aug-12 02:24 242 26.7
2020-Aug-12 02:14 348 0 gusting 4 26.7
2020-Aug-12 02:04 099 0 gusting 4 26.7
2020-Aug-12 01:54 243 26.7
2020-Aug-12 01:44 154 0 gusting 4 27.2
2020-Aug-12 01:34 217 0 gusting 4 27.2
2020-Aug-12 01:24 182 27.8
2020-Aug-12 01:14 222 0 gusting 4 27.8
2020-Aug-12 01:04 118 28.3
2020-Aug-12 00:54 191 0 gusting 6 28.3
2020-Aug-12 00:44 190 0 gusting 6 28.3
2020-Aug-12 00:34 172 0 gusting 6 28.9
2020-Aug-12 00:24 163 28.9
2020-Aug-12 00:14 328 0 gusting 4 29.4
2020-Aug-12 00:04 187 0 gusting 4 29.4
2020-Aug-11 23:54 019 0 gusting 6 29.4
2020-Aug-11 23:44 188 0 gusting 6 30.0
2020-Aug-11 23:34 193 0 gusting 4 30.0
2020-Aug-11 23:24 170 1 gusting 4 30.0
2020-Aug-11 23:14 155 0 gusting 6 30.6
2020-Aug-11 23:04 162 0 gusting 6 30.6
2020-Aug-11 22:54 179 1 gusting 8 30.6
2020-Aug-11 22:44 183 0 gusting 8 31.1
2020-Aug-11 22:34 182 0 gusting 8 31.7
2020-Aug-11 22:24 168 1 gusting 6 31.7
2020-Aug-11 22:14 173 1 gusting 6 32.2
2020-Aug-11 22:04 147 1 gusting 11 32.2
2020-Aug-11 21:54 213 0 gusting 8 32.8
2020-Aug-11 21:44 253 1 gusting 8 32.8
2020-Aug-11 21:34 184 0 gusting 8 32.8
2020-Aug-11 21:24 175 1 gusting 11 33.3
2020-Aug-11 21:14 285 1 gusting 11 33.3
2020-Aug-11 21:04 109 1 gusting 8 33.9
2020-Aug-11 20:54 197 1 gusting 11 33.3
2020-Aug-11 20:44 182 2 gusting 6 33.3
2020-Aug-11 20:34 174 1 gusting 8 33.3
2020-Aug-11 20:24 164 1 gusting 6 33.3
2020-Aug-11 20:14 286 0 gusting 6 34.4
2020-Aug-11 20:04 188 1 gusting 4 34.4
2020-Aug-11 19:54 165 1 gusting 8 33.9
2020-Aug-11 19:44 160 0 gusting 6 33.9
2020-Aug-11 19:34 151 3 gusting 11 33.9
2020-Aug-11 19:24 206 1 gusting 6 34.4
2020-Aug-11 19:14 045 0 gusting 4 34.4
2020-Aug-11 19:04 257 1 gusting 6 34.4
2020-Aug-11 18:54 179 0 gusting 8 35.0
2020-Aug-11 18:44 004 0 gusting 6 35.0
2020-Aug-11 18:34 293 0 gusting 6 36.1
2020-Aug-11 18:24 289 1 gusting 6 35.6
2020-Aug-11 18:14 162 1 gusting 6 35.0
2020-Aug-11 18:04 312 0 gusting 6 35.6
2020-Aug-11 17:54 324 0 gusting 4 35.6
2020-Aug-11 17:44 175 0 gusting 4 35.0
2020-Aug-11 17:34 095 1 gusting 6 34.4
2020-Aug-11 17:24 316 1 gusting 8 33.9
2020-Aug-11 17:14 349 2 gusting 6 33.9
2020-Aug-11 17:04 324 1 gusting 6 33.9
2020-Aug-11 16:54 274 1 gusting 6 33.3
2020-Aug-11 16:44 172 0 gusting 4 33.3
2020-Aug-11 16:34 347 1 gusting 4 33.3
2020-Aug-11 16:24 237 0 gusting 6 33.3
2020-Aug-11 16:14 201 33.3
2020-Aug-11 16:04 292 0 gusting 6 33.9
2020-Aug-11 15:54 332 0 gusting 6 32.8
2020-Aug-11 15:44 189 1 gusting 4 32.8
2020-Aug-11 15:34 292 0 gusting 4 32.8
2020-Aug-11 15:24 055 0 gusting 4 32.2
2020-Aug-11 15:14 305 1 gusting 4 31.7
2020-Aug-11 15:04 304 0 gusting 6 31.7
2020-Aug-11 14:54 274 0 gusting 6 31.1
2020-Aug-11 14:44 322 1 gusting 4 30.6
2020-Aug-11 14:34 198 0 gusting 4 31.1
2020-Aug-11 14:24 012 0 gusting 4 30.6
2020-Aug-11 14:14 330 1 gusting 4 30.0
2020-Aug-11 14:04 021 0 gusting 6 29.4
2020-Aug-11 13:54 158 0 gusting 4 29.4
2020-Aug-11 13:44 317 1 gusting 4 28.9
2020-Aug-11 13:34 346 0 gusting 1 28.9
2020-Aug-11 13:24 333 0 gusting 4 28.3
2020-Aug-11 13:14 311 28.3
2020-Aug-11 13:04 224 27.8
2020-Aug-11 12:54 217 0 gusting 1 27.8
2020-Aug-11 12:44 139 27.2
2020-Aug-11 12:34 170 27.2
2020-Aug-11 12:24 299 0 gusting 1 26.7
2020-Aug-11 12:14 316 26.1
2020-Aug-11 12:04 326 0 gusting 4 26.1
2020-Aug-11 11:54 181 0 gusting 1 26.1
2020-Aug-11 11:44 138 25.6
2020-Aug-11 11:34 319 25.0
2020-Aug-11 11:24 216 25.0
2020-Aug-11 11:14 190 24.4
2020-Aug-11 11:04 352 24.4
2020-Aug-11 10:54 161 23.9
2020-Aug-11 10:44 184 23.9
2020-Aug-11 10:34 330 23.9
2020-Aug-11 10:24 324 23.9
2020-Aug-11 10:14 160 23.9
2020-Aug-11 10:04 036 23.9
2020-Aug-11 09:54 211 0 gusting 4 23.9
2020-Aug-11 09:44 349 23.9
2020-Aug-11 09:34 283 23.9
2020-Aug-11 09:24 344 23.9
2020-Aug-11 09:14 190 23.9
2020-Aug-11 09:04 201 23.9
2020-Aug-11 08:54 169 24.4
2020-Aug-11 08:44 284 24.4
2020-Aug-11 08:34 328 24.4
2020-Aug-11 08:24 207 24.4
2020-Aug-11 08:14 004 24.4
2020-Aug-11 08:04 328 24.4
2020-Aug-11 07:54 197 24.4
2020-Aug-11 07:44 198 25.0
2020-Aug-11 07:34 233 25.0
2020-Aug-11 07:24 352 25.0
2020-Aug-11 07:14 324 25.0
2020-Aug-11 07:04 349 25.0
2020-Aug-11 06:54 177 25.6
2020-Aug-11 06:44 180 25.6
2020-Aug-11 06:34 344 25.6
2020-Aug-11 06:24 166 25.6
2020-Aug-11 06:14 274 26.1
2020-Aug-11 06:04 273 26.1
2020-Aug-11 05:54 004 26.1
2020-Aug-11 05:44 073 26.1
2020-Aug-11 05:34 306 26.7
2020-Aug-11 05:24 019 26.7
2020-Aug-11 05:14 317 26.7
2020-Aug-11 05:04 344 26.7
2020-Aug-11 04:54 352 27.2
2020-Aug-11 04:44 331 0 gusting 4 27.2
2020-Aug-11 04:34 338 27.2
2020-Aug-11 04:24 011 27.8
2020-Aug-11 04:14 184 27.8
2020-Aug-11 04:04 009 0 gusting 4 27.8
2020-Aug-11 03:54 259 27.8
2020-Aug-11 03:44 092 27.8
2020-Aug-11 03:34 332 27.8
2020-Aug-11 03:24 314 0 gusting 1 27.8
2020-Aug-11 03:14 339 27.8
2020-Aug-11 03:04 175 28.3
2020-Aug-11 02:54 182 28.3
2020-Aug-11 02:44 166 0 gusting 1 28.3
2020-Aug-11 02:34 239 0 gusting 1 28.9
2020-Aug-11 02:24 135 28.9
2020-Aug-11 02:14 007 0 gusting 4 28.9
2020-Aug-11 02:04 355 29.4
2020-Aug-11 01:54 006 0 gusting 1 29.4
2020-Aug-11 01:44 315 29.4
2020-Aug-11 01:34 290 0 gusting 4 29.4
2020-Aug-11 01:24 345 30.0
2020-Aug-11 01:14 320 1 gusting 6 30.0
2020-Aug-11 01:04 317 30.0
2020-Aug-11 00:54 198 0 gusting 4 30.0
2020-Aug-11 00:44 164 0 gusting 4 30.0
2020-Aug-11 00:34 336 30.6
2020-Aug-11 00:24 122 30.6
2020-Aug-11 00:14 230 30.6
2020-Aug-11 00:04 194 30.6
2020-Aug-10 23:54 202 31.1
2020-Aug-10 23:44 323 31.7
2020-Aug-10 23:34 248 31.7
2020-Aug-10 23:24 163 31.7
2020-Aug-10 23:14 321 0 gusting 4 32.2
2020-Aug-10 23:04 352 0 gusting 4 32.2
2020-Aug-10 22:54 300 0 gusting 4 32.8
2020-Aug-10 22:44 309 0 gusting 1 32.8
2020-Aug-10 22:34 346 0 gusting 4 33.3
2020-Aug-10 22:24 260 0 gusting 4 33.3
2020-Aug-10 22:14 298 1 gusting 4 33.3
2020-Aug-10 22:04 284 33.9
2020-Aug-10 21:54 332 0 gusting 4 33.9
2020-Aug-10 21:44 262 1 gusting 6 33.9
2020-Aug-10 21:34 030 0 gusting 6 34.4
2020-Aug-10 21:24 148 0 gusting 4 33.9
2020-Aug-10 21:14 165 33.9
2020-Aug-10 21:04 330 0 gusting 6 33.9
2020-Aug-10 20:54 296 0 gusting 6 34.4
2020-Aug-10 20:44 321 1 gusting 6 34.4
2020-Aug-10 20:34 301 1 gusting 4 34.4
2020-Aug-10 20:24 314 2 gusting 8 33.9
2020-Aug-10 20:14 306 0 gusting 6 33.3
2020-Aug-10 20:04 296 0 gusting 6 33.3
2020-Aug-10 19:54 313 0 gusting 4 33.9
2020-Aug-10 19:44 063 0 gusting 4 33.9
2020-Aug-10 19:34 189 33.9
2020-Aug-10 19:24 177 1 gusting 6 33.3
2020-Aug-10 19:14 154 33.9
2020-Aug-10 19:04 296 0 gusting 6 33.3
2020-Aug-10 18:54 350 0 gusting 4 33.9
2020-Aug-10 18:44 296 0 gusting 11 33.9
2020-Aug-10 18:34 282 1 gusting 6 32.8
2020-Aug-10 18:24 302 1 gusting 4 34.4
2020-Aug-10 18:14 280 0 gusting 6 34.4
2020-Aug-10 18:04 299 1 gusting 6 35.0